| time (UTC) | temp F | wind direction | speed MPH | gust MPH | rain 1hr in | rain 24hr in | rain mn in | humidity % | barometer mb |
| 20260506160021 | 54 | 6 | 3.0 | 5.0 | 0.00 | 1.26 | 0.25 | 78 | 1012.1 |
| 20260506155045 | 53 | 38 | 3.0 | 4.0 | 0.00 | 1.26 | 0.25 | 81 | 1012.0 |
| 20260506154049 | 52 | 22 | 3.0 | 4.0 | 0.00 | 1.26 | 0.25 | 81 | 1011.9 |
| 20260506153016 | 52 | 252 | 3.0 | 5.0 | 0.00 | 1.26 | 0.25 | 80 | 1011.8 |
| 20260506152040 | 52 | 298 | 2.0 | 4.0 | 0.00 | 1.26 | 0.25 | 82 | 1011.6 |
| 20260506151024 | 51 | 2 | 3.0 | 4.0 | 0.00 | 1.26 | 0.25 | 84 | 1011.5 |
| 20260506150028 | 50 | 271 | 2.0 | 4.0 | 0.00 | 1.26 | 0.25 | 86 | 1011.4 |
| 20260506145035 | 49 | 301 | 1.0 | 3.0 | 0.00 | 1.26 | 0.25 | 88 | 1011.4 |
| 20260506144019 | 48 | 316 | 2.0 | 3.0 | 0.00 | 1.26 | 0.25 | 89 | 1011.4 |
| 20260506143023 | 48 | 344 | 2.0 | 4.0 | 0.00 | 1.26 | 0.25 | 90 | 1011.3 |
| 20260506142027 | 48 | 322 | 2.0 | 3.0 | 0.00 | 1.26 | 0.25 | 93 | 1011.4 |
| 20260506141045 | 48 | 352 | 2.0 | 4.0 | 0.00 | 1.26 | 0.25 | 94 | 1011.2 |
| 20260506140017 | 48 | 14 | 2.0 | 3.0 | 0.00 | 1.26 | 0.25 | 96 | 1011.1 |
| 20260506135022 | 48 | 321 | 1.0 | 4.0 | 0.00 | 1.26 | 0.25 | 96 | 1010.8 |
| 20260506134020 | 47 | 23 | 1.0 | 3.0 | 0.00 | 1.26 | 0.25 | 97 | 1010.6 |
| 20260506133018 | 47 | 1 | 2.0 | 3.0 | 0.00 | 1.26 | 0.25 | 98 | 1010.5 |
| 20260506132017 | 47 | 25 | 2.0 | 3.0 | 0.00 | 1.26 | 0.25 | 98 | 1010.4 |
| 20260506131015 | 47 | 16 | 2.0 | 4.0 | 0.00 | 1.26 | 0.25 | 98 | 1010.3 |
| 20260506130025 | 47 | 343 | 1.0 | 3.0 | 0.00 | 1.26 | 0.25 | 98 | 1010.5 |
| 20260506125029 | 47 | 16 | 1.0 | 3.0 | 0.00 | 1.26 | 0.25 | 98 | 1010.3 |
| 20260506124015 | 47 | 0.0 | 0.0 | 0.00 | 1.26 | 0.25 | 98 | 1010.2 | |
| 20260506123021 | 47 | 0.0 | 0.0 | 0.00 | 1.26 | 0.25 | 98 | 1010.1 | |
| 20260506122025 | 47 | 13 | 0.0 | 2.0 | 0.00 | 1.26 | 0.25 | 98 | 1010.3 |
| 20260506121029 | 47 | 2 | 1.0 | 2.0 | 0.00 | 1.26 | 0.25 | 98 | 1010.0 |
| 20260506120015 | 47 | 0.0 | 0.0 | 0.00 | 1.26 | 0.25 | 98 | 1009.8 | |
| 20260506115039 | 47 | 0.0 | 0.0 | 0.00 | 1.26 | 0.25 | 98 | 1009.6 | |
| 20260506114023 | 47 | 0.0 | 0.0 | 0.00 | 1.26 | 0.25 | 98 | 1009.4 | |
| 20260506113048 | 47 | 91 | 1.0 | 3.0 | 0.01 | 1.26 | 0.25 | 98 | 1009.3 |
| 20260506112032 | 46 | 9 | 2.0 | 3.0 | 0.01 | 1.26 | 0.25 | 98 | 1009.8 |
| 20260506111039 | 46 | 355 | 3.0 | 5.0 | 0.01 | 1.26 | 0.25 | 98 | 1009.3 |
| 20260506110023 | 46 | 15 | 2.0 | 3.0 | 0.02 | 1.26 | 0.25 | 98 | 1009.1 |
| 20260506105027 | 46 | 7 | 2.0 | 3.0 | 0.03 | 1.26 | 0.25 | 98 | 1008.8 |
| 20260506104051 | 46 | 5 | 2.0 | 3.0 | 0.03 | 1.26 | 0.25 | 98 | 1008.9 |
| 20260506103017 | 46 | 45 | 0.0 | 2.0 | 0.02 | 1.25 | 0.24 | 98 | 1009.1 |
| 20260506102022 | 46 | 0.0 | 0.0 | 0.03 | 1.25 | 0.24 | 98 | 1008.9 | |
| 20260506101026 | 46 | 270 | 0.0 | 1.0 | 0.03 | 1.25 | 0.24 | 98 | 1009.5 |
| 20260506100031 | 46 | 349 | 1.0 | 3.0 | 0.03 | 1.24 | 0.23 | 98 | 1009.3 |
| 20260506095037 | 46 | 0.0 | 0.0 | 0.03 | 1.23 | 0.22 | 98 | 1009.0 | |
| 20260506094021 | 46 | 0.0 | 0.0 | 0.04 | 1.23 | 0.22 | 98 | 1008.9 | |
| 20260506093025 | 46 | 0.0 | 0.0 | 0.05 | 1.23 | 0.22 | 98 | 1008.9 | |
| 20260506092051 | 46 | 0.0 | 0.0 | 0.06 | 1.22 | 0.21 | 98 | 1008.5 | |
| 20260506091016 | 46 | 0.0 | 0.0 | 0.07 | 1.22 | 0.21 | 98 | 1008.8 | |
| 20260506090022 | 46 | 0.0 | 1.0 | 0.06 | 1.21 | 0.20 | 98 | 1009.3 | |
| 20260506085025 | 46 | 356 | 1.0 | 2.0 | 0.06 | 1.20 | 0.19 | 98 | 1009.3 |
| 20260506084029 | 46 | 12 | 1.0 | 3.0 | 0.05 | 1.19 | 0.18 | 98 | 1009.2 |
| 20260506083015 | 46 | 10 | 2.0 | 3.0 | 0.05 | 1.18 | 0.17 | 98 | 1009.1 |
| 20260506082020 | 46 | 359 | 2.0 | 3.0 | 0.03 | 1.16 | 0.15 | 98 | 1009.3 |
| 20260506081024 | 46 | 12 | 2.0 | 3.0 | 0.02 | 1.15 | 0.14 | 98 | 1009.0 |
| 20260506073037 | 46 | 7 | 1.0 | 2.0 | 0.02 | 1.13 | 0.12 | 98 | 1008.9 |
| 20260506072016 | 46 | 331 | 1.0 | 2.0 | 0.02 | 1.13 | 0.12 | 98 | 1008.4 |
| 20260506071032 | 46 | 23 | 2.0 | 3.0 | 0.03 | 1.13 | 0.12 | 98 | 1008.5 |
| 20260506062017 | 47 | 0.0 | 0.0 | 0.04 | 1.11 | 0.10 | 98 | 1009.0 | |
| 20260506061022 | 47 | 0.0 | 0.0 | 0.03 | 1.10 | 0.09 | 98 | 1009.3 | |
| 20260506051029 | 47 | 0.0 | 0.0 | 0.04 | 1.07 | 0.06 | 98 | 1010.0 | |
| 20260506045040 | 47 | 6 | 1.0 | 4.0 | 0.05 | 1.06 | 0.05 | 98 | 1010.2 |
| 20260506044024 | 48 | 2 | 1.0 | 3.0 | 0.06 | 1.05 | 0.04 | 98 | 1010.3 |
| 20260506043029 | 48 | 0.0 | 0.0 | 0.06 | 1.04 | 0.03 | 98 | 1010.3 | |
| 20260506042016 | 48 | 0 | 0.0 | 1.0 | 0.08 | 1.04 | 0.03 | 98 | 1010.3 |
| 20260506041019 | 48 | 270 | 0.0 | 2.0 | 0.09 | 1.03 | 0.02 | 98 | 1010.5 |
| 20260506040023 | 48 | 300 | 1.0 | 3.0 | 0.11 | 1.02 | 0.01 | 98 | 1010.3 |
| 20260506035048 | 49 | 0 | 0.0 | 1.0 | 0.13 | 1.01 | 1.01 | 98 | 1010.1 |
| 20260506034032 | 49 | 265 | 1.0 | 2.0 | 0.14 | 0.99 | 0.99 | 98 | 1010.0 |
| 20260506033018 | 49 | 352 | 1.0 | 3.0 | 0.16 | 0.98 | 0.98 | 98 | 1009.8 |
| 20260506032043 | 49 | 0.0 | 0.0 | 0.17 | 0.96 | 0.96 | 97 | 1009.8 | |
| 20260506031027 | 49 | 0.0 | 0.0 | 0.16 | 0.94 | 0.94 | 97 | 1010.0 | |
| 20260506030031 | 49 | 0.0 | 0.0 | 0.15 | 0.91 | 0.91 | 97 | 1010.2 | |
| 20260506025018 | 49 | 0.0 | 0.0 | 0.12 | 0.88 | 0.88 | 97 | 1010.3 | |
| 20260506024022 | 49 | 0.0 | 0.0 | 0.09 | 0.85 | 0.85 | 97 | 1010.3 | |
| 20260506023026 | 49 | 0.0 | 0.0 | 0.07 | 0.82 | 0.82 | 97 | 1010.3 | |
| 20260506022024 | 49 | 223 | 2.0 | 3.0 | 0.06 | 0.79 | 0.79 | 97 | 1010.0 |
| 20260506021016 | 49 | 248 | 0.0 | 2.0 | 0.06 | 0.78 | 0.78 | 97 | 1010.0 |
| 20260506020020 | 49 | 259 | 1.0 | 3.0 | 0.05 | 0.76 | 0.76 | 97 | 1009.8 |
| 20260506015019 | 49 | 0.0 | 0.0 | 0.06 | 0.76 | 0.76 | 97 | 1009.7 | |
| 20260506014017 | 49 | 0.0 | 0.0 | 0.06 | 0.76 | 0.76 | 97 | 1009.6 | |
| 20260506013015 | 49 | 0.0 | 0.0 | 0.05 | 0.75 | 0.75 | 97 | 1009.5 | |
| 20260506012019 | 49 | 0.0 | 0.0 | 0.05 | 0.73 | 0.73 | 97 | 1009.6 | |
| 20260506011024 | 49 | 0.0 | 0.0 | 0.07 | 0.72 | 0.72 | 97 | 1009.3 | |
| 20260506010029 | 49 | 113 | 2.0 | 4.0 | 0.10 | 0.71 | 0.71 | 97 | 1009.5 |
| 20260506005015 | 49 | 113 | 1.0 | 3.0 | 0.15 | 0.70 | 0.70 | 97 | 1009.6 |
| 20260506004019 | 49 | 113 | 3.0 | 4.0 | 0.16 | 0.70 | 0.70 | 97 | 1009.9 |
| 20260506003023 | 49 | 49 | 1.0 | 3.0 | 0.18 | 0.70 | 0.70 | 96 | 1010.1 |
| 20260506002028 | 49 | 257 | 1.0 | 2.0 | 0.17 | 0.68 | 0.68 | 96 | 1010.0 |
| 20260506001033 | 49 | 0.0 | 0.0 | 0.21 | 0.65 | 0.65 | 96 | 1010.0 | |
| 20260506000038 | 49 | 284 | 2.0 | 5.0 | 0.19 | 0.61 | 0.61 | 96 | 1009.5 |
| 20260505235022 | 49 | 20 | 1.0 | 2.0 | 0.15 | 0.55 | 0.55 | 96 | 1009.6 |
| 20260505234026 | 49 | 0 | 0.0 | 2.0 | 0.19 | 0.54 | 0.54 | 96 | 1009.9 |
| 20260505233031 | 49 | 52 | 1.0 | 2.0 | 0.17 | 0.52 | 0.52 | 96 | 1010.2 |
| 20260505232017 | 49 | 266 | 2.0 | 4.0 | 0.16 | 0.51 | 0.51 | 96 | 1009.8 |
| 20260505231022 | 49 | 261 | 1.0 | 3.0 | 0.11 | 0.44 | 0.44 | 95 | 1010.0 |
| 20260505230026 | 49 | 242 | 2.0 | 3.0 | 0.13 | 0.42 | 0.42 | 95 | 1009.5 |
| 20260505225050 | 49 | 6 | 1.0 | 2.0 | 0.16 | 0.40 | 0.40 | 95 | 1009.8 |
| 20260505224016 | 50 | 241 | 1.0 | 3.0 | 0.16 | 0.35 | 0.35 | 94 | 1009.8 |
| 20260505223020 | 49 | 248 | 0.0 | 1.0 | 0.16 | 0.35 | 0.35 | 94 | 1009.8 |
| 20260505222025 | 49 | 18 | 2.0 | 2.0 | 0.19 | 0.35 | 0.35 | 94 | 1009.6 |
| 20260505221048 | 50 | 37 | 2.0 | 3.0 | 0.21 | 0.33 | 0.33 | 94 | 1009.8 |
| 20260505220015 | 50 | 5 | 2.0 | 4.0 | 0.20 | 0.29 | 0.29 | 93 | 1009.3 |
| 20260505215039 | 50 | 315 | 2.0 | 4.0 | 0.18 | 0.24 | 0.24 | 93 | 1009.3 |
| 20260505214024 | 51 | 1 | 3.0 | 6.0 | 0.15 | 0.19 | 0.19 | 93 | 1009.4 |
| 20260505213028 | 52 | 7 | 4.0 | 6.0 | 0.17 | 0.19 | 0.19 | 93 | 1009.5 |
| 20260505212032 | 53 | 15 | 3.0 | 4.0 | 0.15 | 0.16 | 0.16 | 93 | 1009.5 |
| 20260505211038 | 54 | 12 | 3.0 | 6.0 | 0.12 | 0.12 | 0.12 | 93 | 1009.0 |
| 20260505210022 | 55 | 7 | 2.0 | 4.0 | 0.09 | 0.09 | 0.09 | 92 | 1008.9 |
| 20260505205027 | 55 | 341 | 2.0 | 3.0 | 0.06 | 0.06 | 0.06 | 92 | 1009.0 |
| 20260505204025 | 56 | 303 | 2.0 | 3.0 | 0.04 | 0.04 | 0.04 | 91 | 1009.1 |
| 20260505203018 | 56 | 17 | 2.0 | 3.0 | 0.02 | 0.02 | 0.02 | 89 | 1009.1 |
| 20260505202022 | 57 | 270 | 3.0 | 4.0 | 0.01 | 0.01 | 0.01 | 87 | 1009.1 |
| 20260505201020 | 58 | 301 | 2.0 | 4.0 | 0.00 | 0.00 | 0.00 | 85 | 1009.1 |
| 20260505200018 | 58 | 281 | 3.0 | 4.0 | 0.00 | 0.00 | 0.00 | 84 | 1008.9 |
| 20260505195016 | 59 | 32 | 3.0 | 4.0 | 0.00 | 0.00 | 0.00 | 82 | 1008.9 |
| 20260505194015 | 60 | 315 | 3.0 | 5.0 | 0.00 | 0.00 | 0.00 | 80 | 1008.9 |
| 20260505193045 | 61 | 282 | 3.0 | 5.0 | 0.00 | 0.00 | 0.00 | 77 | 1008.8 |
| 20260505192029 | 61 | 332 | 2.0 | 4.0 | 0.00 | 0.00 | 0.00 | 77 | 1008.9 |
| 20260505191016 | 61 | 322 | 4.0 | 6.0 | 0.00 | 0.00 | 0.00 | 76 | 1008.9 |
| 20260505190021 | 61 | 86 | 3.0 | 4.0 | 0.00 | 0.00 | 0.00 | 77 | 1009.0 |
| 20260505185044 | 61 | 276 | 5.0 | 9.0 | 0.00 | 0.00 | 0.00 | 76 | 1009.0 |
| 20260505184029 | 62 | 271 | 4.0 | 7.0 | 0.00 | 0.00 | 0.00 | 74 | 1009.1 |
| 20260505183015 | 63 | 252 | 3.0 | 6.0 | 0.00 | 0.00 | 0.00 | 73 | 1009.1 |
| 20260505182019 | 63 | 328 | 3.0 | 5.0 | 0.00 | 0.00 | 0.00 | 74 | 1009.0 |
| 20260505181024 | 63 | 291 | 4.0 | 8.0 | 0.00 | 0.00 | 0.00 | 74 | 1008.9 |
| 20260505180029 | 62 | 261 | 4.0 | 7.0 | 0.00 | 0.00 | 0.00 | 74 | 1008.8 |
| 20260505175014 | 62 | 266 | 3.0 | 9.0 | 0.00 | 0.00 | 0.00 | 74 | 1008.8 |
| 20260505174019 | 62 | 285 | 5.0 | 8.0 | 0.00 | 0.00 | 0.00 | 73 | 1008.6 |
| 20260505173023 | 63 | 239 | 5.0 | 7.0 | 0.00 | 0.00 | 0.00 | 71 | 1008.5 |
| 20260505172027 | 64 | 277 | 7.0 | 13.0 | 0.00 | 0.00 | 0.00 | 68 | 1008.3 |
| 20260505171031 | 66 | 261 | 5.0 | 7.0 | 0.00 | 0.00 | 0.00 | 66 | 1008.2 |
| 20260505170018 | 67 | 253 | 5.0 | 8.0 | 0.00 | 0.00 | 0.00 | 65 | 1007.8 |
| 20260505165022 | 69 | 6 | 5.0 | 7.0 | 0.00 | 0.00 | 0.00 | 63 | 1007.7 |
| 20260505164026 | 70 | 263 | 4.0 | 6.0 | 0.00 | 0.00 | 0.00 | 62 | 1007.6 |
| 20260505163031 | 70 | 248 | 6.0 | 9.0 | 0.00 | 0.00 | 0.00 | 61 | 1007.4 |
| 20260505162018 | 69 | 232 | 12.0 | 17.0 | 0.00 | 0.00 | 0.00 | 61 | 1008.0 |